Home > Weather > Manama > Past weeks

Flag for Bahrain Past Weather in Manama, Bahrain — Yesterday and Last 2 Weeks

Now
97 °F

Passing clouds.


Feels Like: 131 °F
Forecast: 90 / 100 °F
Wind: 8 mph from East

Location: Bahrain International Airport

Current Time: Jul 27, 2016 at 10:53:41 AM

Latest Report: Jul 27, 2016 at 10:00 AM


Visibility: 4 mi

Pressure: 29.53 "Hg

Humidity: 71%

Dew Point: 86 °F

Location of ManamaLocation

Past Weather in Manama — Graph

°F

Manama Temperature Yesterday

Maximum temperature yesterday: 99 °F (at 9:00 AM)
Minimum temperature yesterday: 93 °F (at 5:00 AM)
Average temperature yesterday: 95 °F

High & Low Weather Summary for the Past Weeks

 TemperatureHumidityPressure
High108 °F (Jul 20, 9:00 AM)89% (Jul 17, 10:00 PM)29.56 "Hg (Jul 17, 10:00 PM)
Low88 °F (Jul 18, 3:00 AM)13% (Jul 15, 12:00 PM)29.36 "Hg (Jul 23, 2:00 PM)
Average96 °F58%29.46 "Hg
* Reported Jul 12 9:00 AM — Jul 27 9:00 AM, Manama, Weather by CustomWeather, © 2016

Note: Actual official high and low records may vary slightly from our data, if they occured in-between our weather recording intervals... More about our weather records

Advertising

Manama Weather History for the Previous 24 Hours

Scroll right to see more
 ConditionsComfort  
Time TempWeatherWind HumidityBarometerVisibility
9:00 AM
Wed, Jul 27
95 °FPassing clouds.6 mph71%29.53 "Hg4 mi
8:00 AM93 °FPassing clouds.7 mph80%29.53 "Hg4 mi
7:00 AM91 °FPassing clouds.5 mph84%29.53 "Hg4 mi
6:00 AM91 °FClear.2 mph80%29.50 "Hg4 mi
5:00 AM90 °FClear.2 mph84%29.47 "Hg4 mi
4:00 AM90 °FClear.5 mph84%29.47 "Hg4 mi
3:00 AM91 °FPassing clouds.5 mph84%29.47 "Hg4 mi
2:00 AM91 °FPassing clouds.5 mph84%29.47 "Hg4 mi
1:00 AM91 °FClear.3 mph84%29.47 "Hg4 mi
12:00 AM91 °FClear.2 mph84%29.47 "Hg4 mi
11:00 PM
Tue, Jul 26
93 °FClear.3 mph84%29.47 "Hg4 mi
10:00 PM93 °FClear.6 mph84%29.47 "Hg4 mi
9:00 PM93 °FClear.8 mph84%29.47 "Hg5 mi
8:00 PM93 °FClear.8 mph84%29.47 "Hg5 mi
7:00 PM93 °FClear.10 mph84%29.47 "Hg5 mi
6:00 PM95 °FSunny.10 mph75%29.45 "Hg5 mi
5:00 PM97 °FSunny.13 mph67%29.45 "Hg4 mi
4:00 PM97 °FSunny.13 mph67%29.45 "Hg4 mi
3:00 PM97 °FSunny.14 mph71%29.47 "Hg4 mi
2:00 PM97 °FSunny.13 mph71%29.47 "Hg4 mi
1:00 PM97 °FSunny.13 mph71%29.50 "Hg4 mi
12:00 PM99 °FClear.10 mph71%29.50 "Hg4 mi
11:00 AM99 °FSunny.10 mph67%29.53 "Hg4 mi
10:00 AM99 °FSunny.5 mph64%29.53 "Hg4 mi
Weather by CustomWeather, © 2016

See weather overviewHow to use our weather pages